Regional Weather Roundup
Issued by NWS

Home | Current Version | Previous Version | Graphics & Text | Print | Product List | Glossary On
Versions: 1 2 3 4 5 6 7 8 9 10 11 12 13 14 15 16 17 18 19 20 21 22 23 24 25 26 27 28 29 30 31 32 33 34 35 36 37 38 39 40 41 42 43 44 45 46 47 48 49 50
000
ASUS45 KABQ 210001
RWRNM
WEATHER ROUNDUP FOR NEW MEXICO
NATIONAL WEATHER SERVICE ALBUQUERQUE NM
600 PM MDT MON OCT 20 2014

NOTE: "FAIR" MEANS FEW OR NO CLOUDS BELOW 12,000 FEET AGL WITH NO
       SIGNIFICANT WEATHER OR OBSTRUCTIONS TO VISION.

      THIS PRODUCT IS RELEASED AS TWO VERSIONS.  ONE VERSION NEAR
      THE TOP OF THE HOUR CONTAINING PRELIMINARY DATA FROM ALBUQUERQUE
      AND OTHER STATIONS.  A FINAL VERSION WITH ADDITIONAL DATA IS
      ISSUED ABOUT 10 MINUTES AFTER THE HOUR.

NMZ501-503-504-510>518-210100-
NORTHWEST PLATEAU/NORTHCENTRAL MOUNTAINS

CITY           SKY/WX    TMP DP  RH WIND       PRES   REMARKS
FARMINGTON     PTCLDY    64  46  52 W5        30.10F
6HR MIN TEMP:  63; 6HR MAX TEMP:  73; 6HR PCP: TRACE;

LOS ALAMOS     PTCLDY    61  36  39 SW5       30.21S
SANTA FE       LGT RAIN  59  45  59 SW10      30.16S
6HR MIN TEMP:  59; 6HR MAX TEMP:  73; 6HR PCP: TRACE;

TAOS           CLOUDY    59  37  44 N8        30.21S
ANGEL FIRE     FAIR      55  32  42 E10       30.29S

$$
NMZ402-403-502-505>509-210100-
WESTCENTRAL MOUNTAINS/SOUTHWEST MOUNTAINS

CITY           SKY/WX    TMP DP  RH WIND       PRES   REMARKS
GALLUP         CLEAR     62  44  51 NE9       30.14S
6HR MIN TEMP:  55; 6HR MAX TEMP:  66; 6HR PCP: TRACE;

GRANTS         PTCLDY    63  37  39 SE6       30.17S
SILVER CITY    CLEAR     63  50  63 S7        30.10S

$$
NMZ407-409-411-412-210100-
SOUTHERN DESERTS

CITY           SKY/WX    TMP DP  RH WIND       PRES   REMARKS
LORDSBURG      FAIR      68  50  52 MISG      30.02R
DEMING         PTCLDY    69  51  52 E5        30.03S
6HR MIN TEMP:  65; 6HR MAX TEMP:  72; 6HR PCP: TRACE;

LAS CRUCES     MOCLDY    65  55  70 E5        30.06S
T OR C         CLOUDY    69  49  48 NE12      30.06S
6HR MIN TEMP:  66; 6HR MAX TEMP:  71;


$$
NMZ519>523-210100-
CENTRAL VALLEYS/CENTRAL HIGHLANDS

CITY           SKY/WX    TMP DP  RH WIND       PRES   REMARKS
ALBUQUERQUE    CLOUDY    60  51  72 NE5       30.15S
6HR MIN TEMP:  56; 6HR MAX TEMP:  73; 6HR PCP:  0.44;

DOUBLE EAGLE   MOCLDY    55  50  82 W9        30.17R
MORIARTY ARPT  HVY RAIN  55  51  85 E3        30.19S
6HR MIN TEMP:  55; 6HR MAX TEMP:  71; 6HR PCP:  0.08;

CLINES CORNERS MOCLDY    58  42  55 E13       30.19S
6HR MIN TEMP:  57; 6HR MAX TEMP:  68; 6HR PCP: TRACE;

BELEN          FAIR      60  47  62 SE8       30.14S
6HR MIN TEMP:  60; 6HR MAX TEMP:  72;

SOCORRO        MOCLDY    61  49  66 NW6       30.11F
6HR MIN TEMP:  59; 6HR MAX TEMP:  72; 6HR PCP:  0.01;


$$
NMZ524>526-539-540-210100-
SOUTHCENTRAL MOUNTAINS

CITY           SKY/WX    TMP DP  RH WIND       PRES   REMARKS
RUIDOSO        NOT AVBL

$$
NMZ527>531-210100-
NORTHEAST HIGHLANDS/NORTHEAST PLAINS

CITY           SKY/WX    TMP DP  RH WIND       PRES   REMARKS
LAS VEGAS      PTCLDY    56  45  66 SE7       30.21S
6HR MIN TEMP:  55; 6HR MAX TEMP:  67; 6HR PCP:  0.04;

RATON          CLEAR     65  32  29 SE10      30.17R
6HR MIN TEMP:  65; 6HR MAX TEMP:  72;

CLAYTON        CLEAR     64  45  49 E7        30.15R
6HR MIN TEMP:  64; 6HR MAX TEMP:  72;


$$
NMZ532>537-210100-
EASTCENTRAL PLAINS

CITY           SKY/WX    TMP DP  RH WIND       PRES   REMARKS
TUCUMCARI      PTCLDY    70  47  43 S5        30.07S
6HR MIN TEMP:  70; 6HR MAX TEMP:  80;

CANNON AFB     CLOUDY    67  52  56 S6        30.12R
6HR MIN TEMP:  67; 6HR MAX TEMP:  76;

CLOVIS AIRPORT MOCLDY    64  48  55 SE6       30.13R

$$
NMZ028-029-538-210100-
SOUTHEAST PLAINS

CITY           SKY/WX    TMP DP  RH WIND       PRES   REMARKS
ROSWELL        RAIN      62  55  77 S8        30.08R
6HR MIN TEMP:  62; 6HR MAX TEMP:  74; 6HR PCP:  0.02;

CARLSBAD       LGT RAIN  62  59  90 CALM      30.06S FOG
6HR MIN TEMP:  61; 6HR MAX TEMP:  72; 6HR PCP:  0.36;

HOBBS          MOCLDY    68  52  56 SE10      30.08R


$$


USA.gov is the U.S. government's official web portal to all federal, state and local government web resources and services.